KFLLMYNN

Guest
Details From KFLL - Fort Lauderdale Hollywood Intl
To MYNN - Nassau Intl
Flight Number -
Tags generated
Created
Modified
Stats Distance 158 nm / 293 km
Max Altitude 18,300 ft / 5,578 m
Waypoints 3
Social Downloads 6
Likes 0
Share VATSIM

Download

Looking for another format? Having issues loading an existing format? Contact us
Advertisement - Login to hide

Notes

Basic altitude profile: - Ascent Rate: 2500ft/min - Ascent Speed: 250kts - Cruise Altitude: 35000ft - Cruise Speed: 420kts - Descent Rate: 1500ft/min - Descent Speed: 250kts Options: - Use NATs: yes - Use PACOTS: yes - Use low airways: yes - Use high airways: yes

Route

KFLL ZBV MYNN

ID Type Via Altitude Latitude Longitude Leg Dist Tot Dist Heading (true) Name
O KFLL APT - 0 ft / 0 m 26.07164˚ -80.15269˚ - 0 nm - Fort Lauderdale Hollywood Intl
ZBV VOR - 18,300 ft / 5,578 m 25.70417˚ -79.29444˚ 51 nm 51 nm 115° / 116° BIMINI VORTAC
O MYNN APT - 0 ft / 0 m 25.03860˚ -77.46662˚ 106 nm 158 nm 112° / 112° Nassau Intl

Altitude Profile

Advertisement - Login to hide

KFLL

Details ICAO KFLL (FLL)
Name Fort Lauderdale Hollywood Intl
Region United States
Timezone America/New_York (UTC-4.0)
Stats Elevation 9 ft / 3 m (AMSL)
Location 26.071638° -80.152694°
Runways 2
Magnetic Variation 6.800° W

METAR

KFLL 191053Z 33005KT 10SM FEW027 SCT040 SCT250 21/18 A3009 RMK AO2 SLP188 T02060183

Decode

TAF

TAF AMD KFLL 190901Z 1909/2012 VRB04KT P6SM FEW025 FEW250 FM191600 14009KT P6SM FEW025 FEW250 FM200200 VRB06KT P6SM FEW250

Decode

Departure Runways

ID Width Length Bearing (true) Bearing (mag) Surface Threshold Offset Overrun Length
09L 150 ft / 46 m 8,987 ft / 2,739 m 90.35° 97.15° Asphalt 577 ft / 176 m 10 ft / 3 m
09R 100 ft / 30 m 5,268 ft / 1,606 m 90.38° 97.18° Asphalt 320 ft / 98 m 0 ft / 0 m
27L 100 ft / 30 m 5,268 ft / 1,606 m 270.39° 277.19° Asphalt 142 ft / 43 m 0 ft / 0 m
27R 150 ft / 46 m 8,987 ft / 2,739 m 270.37° 277.17° Asphalt 604 ft / 184 m 10 ft / 3 m

MYNN

Details ICAO MYNN (NAS)
Name Nassau Intl
Region Bahamas
Timezone America/Nassau (UTC-4.0)
Stats Elevation 16 ft / 5 m (AMSL)
Location 25.038596° -77.466621°
Runways 2
Magnetic Variation 8.248° W

METAR

MYNN 191100Z 00000KT 9999 FEW025 22/17 A3009

Decode

TAF

Not found

Destination Runways

ID Width Length Bearing (true) Bearing (mag) Surface Threshold Offset Overrun Length
09 151 ft / 46 m 8,311 ft / 2,533 m 89.62° 97.87° Asphalt 0 ft / 0 m 0 ft / 0 m
14 151 ft / 46 m 11,364 ft / 3,464 m 134.83° 143.08° Asphalt 226 ft / 69 m 0 ft / 0 m
27 151 ft / 46 m 8,311 ft / 2,533 m 269.64° 277.89° Asphalt 0 ft / 0 m 0 ft / 0 m
32 151 ft / 46 m 11,364 ft / 3,464 m 314.84° 323.09° Asphalt 0 ft / 0 m 0 ft / 0 m

Approach Navaids

Runway Type Ident Frequency Range Bearing (true) Bearing (mag) Slope Elevation
14 Localiser IZQA 110.10 MHz 18 nm / 33 km 134.83° 143.08° - 7 ft / 2 m (AMSL)
14 Glidescope IZQA 110.10 MHz 10 nm / 19 km 134.83° 143.08° 3.00° 8 ft / 2 m (AMSL)

Popular Alternatives